Dewpoint
66 66 69 69 69 69 69 69 69 69 69 68 67 66 64 63 62 62 62 61 60 60 59 60 61 64 64 63 64 65 65 64 63 62 60 59 59 60 60 60 57 57 58
67 65 69 69 69 68 68 68 68 68 68 67 66 64 63 63 62 62 61 60 60 59 60 61 61 61 64 64 64 64 63 63 62 61 58 57 57 57 58 58 59 58 58
66 65 67 69 69 68 68 68 68 67 66 64 63 63 63 63 62 61 61 60 61 62 64 65 63 60 64 65 64 62 61 61 61 60 58 53 56 58 59 59 59 58 58
66 65 66 68 68 68 68 68 67 66 65 63 63 63 64 63 61 61 61 61 63 64 64 64 62 62 65 63 62 61 61 61 60 58 54 53 54 58 59 59 59 59 58
67 66 66 68 68 68 67 67 66 65 64 63 63 63 63 62 61 61 60 60 61 61 62 63 64 65 63 62 62 62 61 61 60 54 54 55 54 57 57 57 56 58 59
67 66 67 67 68 68 67 66 65 64 63 63 63 63 63 62 62 61 60 59 59 59 59 62 62 60 61 61 61 61 60 59 54 52 53 56 55 57 56 55 56 57 57
67 67 66 66 66 68 67 66 65 64 63 63 63 63 62 62 62 61 61 60 59 59 59 59 58 59 59 59 59 59 58 57 51 52 53 54 56 56 54 54 53 54 55
67 65 65 65 66 66 66 66 65 64 64 63 63 63 63 63 63 62 61 61 60 59 59 59 59 59 58 58 57 56 55 54 51 52 52 52 55 54 53 52 51 52 53
65 65 66 65 65 64 65 65 64 64 63 64 64 64 63 62 62 61 60 60 60 60 59 58 58 58 58 58 56 55 53 53 51 52 51 51 54 53 52 50 49 50 50
64 64 64 63 60 62 64 64 64 63 63 64 63 62 61 60 60 60 60 60 60 61 60 59 58 58 56 55 55 53 51 49 48 50 51 52 53 53 51 49 48 48 47
62 63 63 59 61 61 58 62 63 63 63 62 61 60 60 59 57 55 58 60 59 58 56 53 52 52 51 50 46 44 42 47 47 48 49 55 52 52 51 49 47 47 47
58 59 60 60 59 59 61 63 63 61 60 60 59 59 58 58 58 57 58 59 57 54 52 49 46 43 38 37 36 37 35 38 43 47 48 52 49 50 50 48 47 46 46
56 56 57 58 60 60 59 61 60 59 59 58 58 58 58 58 59 58 57 54 50 47 41 40 39 38 39 37 37 37 36 34 34 35 42 48 51 46 49 47 47 45 44
56 56 55 55 53 61 60 59 59 56 57 57 57 57 58 58 59 58 56 50 46 43 42 40 40 40 38 38 38 37 36 34 33 33 34 46 48 48 48 46 46 44 43
55 55 55 55 61 61 61 59 57 57 56 58 58 58 60 58 58 56 52 47 43 41 40 39 37 37 37 36 35 34 34 35 37 36 40 52 51 48 45 44 43 45 42
54 55 56 58 61 61 59 59 57 57 57 57 58 58 60 59 57 52 48 44 42 40 39 37 36 35 35 35 35 35 35 34 38 43 44 45 46 45 44 42 40 41 39
54 54 55 59 61 60 59 57 57 56 57 56 58 60 60 59 55 51 48 43 40 41 40 40 37 37 35 34 36 34 34 34 34 36 38 39 39 40 40 39 38 38 37
55 56 57 58 61 60 58 57 57 58 59 60 61 61 59 57 54 50 44 42 41 41 39 38 37 36 36 34 34 34 32 32 33 33 32 32 32 31 31 39 38 40 39
56 56 57 59 60 60 58 58 59 60 60 60 60 59 57 55 52 48 44 43 43 40 40 37 38 37 35 34 32 34 35 33 33 31 32 32 32 31 29 34 36 35 36
57 57 59 60 60 59 59 58 59 60 59 59 59 58 55 52 50 46 44 43 41 40 39 38 38 39 37 36 32 33 36 34 34 34 31 30 32 33 31 33 31 29 33
56 57 58 59 59 58 57 57 57 58 57 56 56 55 52 49 48 46 43 42 41 40 39 40 40 38 36 37 33 32 35 36 36 35 34 33 33 32 33 32 31 31 29
54 56 57 58 57 57 56 56 57 56 55 55 54 53 51 49 47 45 43 41 41 40 40 40 39 37 37 37 29 29 23 29 33 34 34 33 34 33 30 32 34 33 32
54 55 56 57 57 57 57 56 53 52 51 51 52 50 49 47 45 43 43 42 42 41 39 40 39 37 34 35 36 26 20 15 24 30 33 34 34 34 32 33 32 33 33
55 56 56 57 57 57 57 55 54 54 52 51 51 49 48 46 44 43 42 42 42 40 40 40 38 37 33 28 33 33 33 27 18 18 28 31 34 34 33 32 31 32 34
55 56 57 56 56 56 56 56 55 54 53 52 50 48 48 48 45 42 42 42 41 40 41 39 37 36 35 34 29 30 31 30 32 28 20 25 31 32 32 32 33 33 31
55 56 56 56 56 56 56 56 54 53 51 50 49 48 47 46 44 42 41 41 41 40 37 35 36 34 35 34 32 32 29 26 24 28 28 28 29 30 32 32 32 32 28
Wind_Speed
24 24 21 20 22 24 26 27 27 27 27 25 25 23 24 25 23 21 22 21 21 22 22 20 21 21 22 22 22 23 21 21 20 21 22 21 20 21 21 21 18 21 21
26 27 23 21 22 23 25 26 26 26 26 25 25 25 24 23 23 20 22 21 21 21 19 17 18 20 21 22 22 22 21 20 20 20 19 21 20 20 20 20 20 20 21
25 27 26 22 23 23 24 25 25 25 25 25 25 26 24 22 22 21 21 21 20 20 20 19 19 21 22 20 20 21 20 19 17 17 15 17 18 19 20 19 19 19 19
27 26 27 24 24 23 24 24 24 23 24 24 24 25 23 22 22 21 22 20 20 22 23 24 24 23 22 20 20 20 20 19 17 14 15 15 17 18 19 19 19 18 16
25 24 27 26 26 26 25 26 26 25 23 24 23 24 23 22 22 21 22 20 21 22 25 25 25 22 21 19 18 19 18 17 14 14 15 14 14 17 18 18 17 16 17
23 23 27 27 29 27 26 26 26 26 24 23 24 24 22 22 21 19 21 19 21 20 23 23 22 22 20 19 19 18 16 15 12 14 14 14 15 16 17 17 17 16 16
20 21 26 29 31 27 25 25 26 25 24 22 21 22 22 20 19 17 19 19 19 20 21 21 21 21 19 19 18 17 15 13 13 12 12 12 14 15 16 17 17 16 17
19 19 23 24 28 29 25 23 25 24 25 20 20 19 19 19 17 17 19 17 18 20 21 21 20 18 17 17 16 14 13 12 11 11 10 11 13 14 15 15 16 16 17
19 15 14 17 17 23 23 18 24 23 26 22 19 20 18 17 15 16 18 18 17 17 19 20 19 18 16 15 15 15 13 11 10 9 9 8 10 11 13 14 15 15 15
18 17 16 23 20 4 19 23 17 19 22 24 22 19 17 16 16 16 17 17 18 18 20 20 19 18 17 17 15 13 11 10 10 8 8 9 8 9 11 12 12 13 14
13 15 20 26 15 15 8 21 15 15 22 24 23 19 15 12 13 13 15 18 20 21 20 19 20 20 20 19 17 14 10 8 8 7 6 9 8 8 9 10 11 12 13
18 16 21 21 18 15 8 9 12 13 13 16 17 15 12 11 10 13 14 18 21 20 20 21 19 17 14 11 10 11 10 9 9 6 7 12 4 6 7 8 10 10 12
23 21 20 16 13 19 16 9 9 9 11 13 13 12 11 10 10 10 11 12 13 14 13 13 13 12 12 10 10 11 9 9 7 6 8 11 9 3 6 6 8 9 10
22 23 24 11 18 14 13 9 8 10 10 11 11 12 11 10 9 9 10 10 11 10 14 13 10 12 13 13 13 10 10 8 7 6 5 10 7 4 6 5 5 6 6
27 25 28 23 10 6 9 9 8 8 10 12 11 10 9 11 11 10 10 10 11 11 12 11 11 12 11 11 11 11 11 9 7 4 5 12 6 3 5 4 4 3 4
21 24 21 14 9 8 11 10 10 10 10 9 9 11 11 9 11 12 13 13 11 13 11 11 11 10 9 10 11 9 7 6 7 8 7 11 18 17 12 8 5 3 1
18 19 17 11 9 11 10 11 9 10 11 11 11 10 8 10 12 14 13 12 11 11 14 12 11 9 8 8 9 7 6 7 9 10 8 7 8 12 11 9 7 6 5
18 17 16 13 10 10 10 10 10 10 11 10 8 8 10 12 14 14 14 13 12 11 12 10 9 8 7 5 5 6 5 6 6 6 6 5 5 4 4 8 8 7 9
20 20 18 14 13 13 10 8 9 10 9 7 8 8 11 13 14 14 13 13 12 10 10 8 7 6 6 4 3 4 4 5 4 4 2 3 4 4 3 5 8 8 10
19 16 15 13 13 12 10 9 8 8 7 7 8 9 12 13 16 14 13 13 12 11 10 8 8 6 4 3 1 3 2 7 4 1 1 2 2 1 1 3 5 6 8
19 18 17 16 16 16 13 10 8 9 8 7 7 9 13 14 15 14 14 14 11 11 10 9 8 6 3 1 3 2 3 6 5 4 3 3 2 2 3 4 6 8 9
21 21 17 18 18 18 14 13 8 10 8 7 7 9 12 14 15 14 15 13 12 11 11 9 7 4 2 2 2 1 1 4 9 10 6 6 4 2 3 4 8 9 8
22 23 20 19 18 17 15 12 7 8 5 6 9 12 12 13 13 13 13 12 11 9 10 9 7 6 5 5 3 3 3 2 6 3 5 5 6 4 5 7 9 8 8
22 18 18 17 18 18 18 17 17 17 15 12 14 11 12 12 13 13 13 13 12 10 10 8 6 5 3 3 3 5 4 2 5 7 3 6 6 9 9 11 11 10 7
21 21 20 18 18 17 18 17 17 15 11 10 11 13 11 12 13 13 14 14 13 12 12 12 8 5 2 4 4 3 5 4 6 9 14 9 6 10 12 13 11 8 4
18 19 19 20 19 18 20 19 19 17 13 10 11 14 15 13 13 14 15 15 15 14 13 10 9 8 8 6 4 5 6 6 7 8 11 13 13 13 10 9 10 6 3
Wind_Direction
155 155 145 141 133 127 121 120 120 119 118 118 115 113 108 106 106 106 106 104 106 105 104 104 103 101 98 96 90 87 82 81 80 78 74 71 68 65 62 54 57 62 60
148 153 148 143 133 129 125 123 121 120 119 119 116 112 109 110 111 114 110 110 108 107 106 105 108 108 105 101 95 93 87 79 75 73 78 77 69 69 66 61 51 58 58
146 151 150 143 138 133 128 125 121 120 120 120 119 115 116 115 115 115 111 107 104 104 107 109 125 117 109 101 97 93 90 85 81 77 75 73 67 63 62 61 61 57 58
148 152 153 144 140 135 129 125 122 124 126 125 122 118 118 117 117 117 112 108 107 108 105 106 117 118 109 100 97 95 93 91 86 88 79 74 72 63 60 58 54 52 54
147 151 151 145 142 137 135 132 131 129 127 124 123 120 120 118 117 116 113 109 107 107 105 108 115 112 105 99 97 93 93 90 89 85 78 72 68 63 60 55 55 57 52
142 152 150 148 143 140 137 134 130 127 125 127 125 121 122 119 115 116 111 109 103 107 111 114 113 109 105 104 99 97 96 92 88 78 78 77 70 65 60 57 55 52 51
141 152 155 154 145 136 131 128 124 122 125 124 123 122 118 116 111 110 109 104 103 102 104 111 111 107 108 107 105 104 101 93 87 80 75 71 71 68 62 58 56 55 53
139 160 156 152 138 123 121 124 122 125 115 117 112 114 113 112 113 112 106 111 105 101 101 108 111 109 108 106 107 103 96 98 91 86 75 70 72 68 66 62 58 56 58
101 101 107 98 108 125 124 122 119 129 124 120 115 107 106 110 113 110 110 110 108 109 104 97 94 93 94 102 101 96 91 85 90 83 75 67 75 72 70 64 60 62 61
107 106 109 105 96 359 126 117 116 120 115 115 110 112 120 115 112 106 105 105 106 110 104 101 98 93 90 89 89 82 78 78 82 87 75 78 80 75 70 65 66 67 65
94 110 108 114 128 121 97 103 101 118 123 119 119 127 124 124 118 115 110 106 108 103 103 103 96 91 88 82 78 74 66 68 76 65 62 41 77 75 75 70 68 65 58
98 101 111 108 113 109 125 120 145 139 126 121 128 131 130 130 126 121 113 108 100 105 102 96 92 87 88 90 84 71 69 62 64 66 63 22 54 82 83 74 70 63 60
119 108 99 114 137 139 174 150 115 125 124 120 128 134 133 131 128 126 126 118 123 112 104 98 95 92 95 92 81 68 63 61 56 52 42 18 6 46 95 85 76 64 58
130 133 132 157 143 156 146 128 141 138 130 134 139 144 144 141 138 135 131 135 121 108 106 94 97 97 88 87 83 80 68 57 50 38 25 8 8 1 125 103 95 84 54
141 144 149 173 186 155 132 147 145 143 151 146 147 157 150 154 149 141 140 134 121 122 109 119 108 98 93 83 72 70 63 55 54 47 54 42 52 39 122 99 61 135 90
158 163 172 180 177 164 165 165 156 149 153 160 161 167 175 163 150 141 144 129 136 123 124 113 112 101 95 90 76 65 68 59 62 63 73 68 60 64 66 61 37 16 68
160 167 183 196 185 176 178 164 161 158 160 178 183 183 183 162 153 146 131 141 132 126 120 113 101 95 97 96 87 64 83 91 79 72 74 79 83 65 57 45 25 8 325
177 191 198 197 189 177 177 169 167 166 176 181 185 173 172 159 157 146 153 140 139 137 121 113 113 106 109 105 86 53 100 108 81 66 64 64 62 46 45 31 24 7 346
198 196 197 195 193 182 169 172 169 169 177 169 168 172 161 162 160 155 150 144 144 131 121 128 116 125 108 81 64 51 152 156 123 89 82 67 42 16 8 45 18 12 356
197 196 193 188 186 170 160 162 168 171 177 172 180 178 164 170 163 154 150 144 146 136 131 129 127 103 88 44 337 337 181 183 161 137 126 144 10 9 13 344 331 332 341
201 198 195 184 180 169 165 168 177 180 183 188 186 172 174 170 163 153 157 152 155 148 137 134 125 131 104 48 246 214 207 204 219 242 270 241 248 165 324 321 318 319 312
203 204 197 198 183 184 181 180 182 182 192 186 179 175 187 168 166 167 158 159 155 141 144 154 150 144 141 233 295 268 279 207 234 247 242 252 191 294 315 306 318 309 309
205 202 202 199 193 190 190 171 134 138 132 166 181 183 181 172 168 168 160 156 154 153 156 160 152 158 190 201 229 313 286 275 302 224 231 241 225 285 292 300 317 306 302
209 204 203 197 196 193 189 190 186 192 191 199 187 183 173 167 169 164 159 159 158 155 156 147 155 173 174 229 188 213 244 268 302 298 253 269 234 275 281 301 315 319 308
199 199 199 198 199 194 195 199 199 201 196 165 176 171 172 169 171 167 166 161 159 160 157 156 155 167 137 228 228 213 243 244 247 265 295 295 272 277 287 290 298 304 283
192 193 194 198 202 193 194 197 205 207 189 171 181 182 185 176 172 175 170 168 163 156 155 157 153 172 189 206 218 230 251 268 281 276 285 292 291 293 289 283 288 284 265